Location: Tierz
(42.1336°N, 0.3549°W)
Time: 21:54:34
(UTC+00:00)

CZ-4 R/B - Pass Details

Date: 29 October 2020
Orbit: 531 x 598 km, 97.7° (Epoch: 25 November)

Event Time Altitude Azimuth Distance (km) Brightness Sun altitude
Rises 18:57:43 0° 180° (S) 2,699 4.8 -22.6°
Reaches altitude 10° 18:59:54 10° 187° (S) 1,802 4.0 -23.0°
Maximum altitude 19:03:38 45° 261° (W) 743 2.3 -23.7°
Drops below altitude 10° 19:07:22 10° 335° (NNW) 1,795 4.3 -24.4°
Sets 19:09:33 0° 341° (NNW) 2,687 5.1 -24.8°
